Location: Unspecified
(0.0000°N, 0.0000°E)
Time: 21:28:40
(UTC+00:00)

Vanguard 2 Rocket - Visible Passes

Search period start: 26 November 2014 00:00
Search period end: 06 December 2014 00:00
Orbit: 553 x 3335 km, 32.9° (Epoch: 26 November)

Date Brightness Start Highest point End Pass type
(mag) Time Alt. Az. Time Alt. Az. Time Alt. Az.
26 Nov 10.0 19:33:55 10° N 19:35:24 10° N 19:36:48 10° N visible
27 Nov 10.1 18:28:52 10° NNW 18:34:12 12° N 18:38:36 10° NNE visible
28 Nov 9.8 19:47:57 10° NNW 19:53:32 14° N 19:53:32 14° N visible
29 Nov 9.9 18:46:00 10° NNW 18:52:52 14° N 18:58:34 10° NNE visible
29 Nov 10.1 21:03:30 10° NNW 21:04:31 12° NNW 21:04:31 12° NNW visible
30 Nov 9.6 20:03:00 10° NNW 20:09:39 20° N 20:09:39 20° N visible
01 Dec 9.6 19:01:51 10° NNW 19:11:18 19° N 19:14:50 17° NNE visible
01 Dec 10.1 21:19:00 10° NW 21:20:47 14° NW 21:20:47 14° NW visible
02 Dec 9.9 17:59:54 10° NNW 18:10:00 18° N 18:18:08 10° NE visible
02 Dec 9.4 20:18:24 10° NW 20:26:03 27° N 20:26:03 27° N visible
03 Dec 9.2 19:17:26 10° NNW 19:29:25 27° NNE 19:31:26 26° NNE visible
03 Dec 10.0 21:35:01 10° NW 21:37:23 17° NW 21:37:23 17° NW visible
04 Dec 9.6 18:16:04 10° NNW 18:28:27 23° NNE 18:36:54 12° ENE visible
04 Dec 9.1 20:34:06 10° NW 20:42:52 37° NNW 20:42:52 37° NNW visible
05 Dec 8.7 19:33:04 10° NW 19:47:07 40° NNE 19:48:28 39° NE visible
05 Dec 10.0 21:51:37 10° WNW 21:54:26 18° WNW 21:54:26 18° WNW visible
